CW4185 Weather Reports


Display with metric or nautical units.
time (UTC)temp
F
wind
direction
speed
MPH
gust
MPH
rain 1hr
in
rain 24hr
in
rain mn
in
humidity
%
barometer
mb
20260901135647 87 172 3.0 6.0 0.00 0.00 0.00 79 1016.6
20260901135147 87 139 3.0 7.0 0.00 0.00 0.00 81 1016.6
20260901134646 87 67 11.0 12.0 0.00 0.00 0.00 81 1016.6
20260901134147 86 1 1.0 7.0 0.00 0.00 0.00 81 1016.6
20260901133647 86 32 1.0 5.0 0.00 0.00 0.00 82 1016.6
20260901133147 86 160 2.0 8.0 0.00 0.00 0.00 82 1016.6
20260901132647 86 69 3.0 6.0 0.00 0.00 0.00 83 1016.6
20260901132147 86 83 5.0 7.0 0.00 0.00 0.00 82 1016.6
20260901131647 86 2 1.0 5.0 0.00 0.00 0.00 83 1016.6
20260901131146 85 220 1.0 4.0 0.00 0.00 0.00 83 1016.6
20260901130648 86 73 3.0 5.0 0.00 0.00 0.00 83 1016.6
20260901130146 85 43 2.0 5.0 0.00 0.00 0.00 83 1016.6
20260901125647 85 85 2.0 5.0 0.00 0.00 0.00 83 1016.3
20260901125146 85 180 2.0 6.0 0.00 0.00 0.00 83 1016.3
20260901124647 85 91 3.0 7.0 0.00 0.00 0.00 83 1016.3
20260901124146 85 153 3.0 5.0 0.00 0.00 0.00 83 1016.3
20260901123647 84 217 1.0 5.0 0.00 0.00 0.00 84 1016.3
20260901123147 84 66 3.0 5.0 0.00 0.00 0.00 85 1015.9
20260901122646 84 28 4.0 6.0 0.00 0.00 0.00 85 1016.3
20260901122146 83 103 0.0 5.0 0.00 0.00 0.00 86 1015.9
20260901121646 83 22 3.0 6.0 0.00 0.00 0.00 86 1015.9
20260901121148 83 72 2.0 4.0 0.00 0.00 0.00 87 1015.9
20260901120647 82 95 2.0 5.0 0.00 0.00 0.00 87 1015.9
20260901120146 82 42 3.0 4.0 0.00 0.00 0.00 88 1015.6
20260901115646 82 76 3.0 5.0 0.00 0.00 0.00 89 1015.9
20260901115146 82 48 3.0 4.0 0.00 0.00 0.00 89 1015.6
20260901114646 81 36 3.0 4.0 0.00 0.00 0.00 90 1015.6
20260901114148 82 216 1.0 5.0 0.00 0.00 0.00 89 1015.2
20260901113646 82 34 2.0 5.0 0.00 0.00 0.00 89 1015.6
20260901113147 81 100 3.0 3.0 0.00 0.00 0.00 90 1015.2
20260901112646 81 62 0.0 3.0 0.00 0.00 0.00 90 1015.2
20260901112147 82 191 3.0 3.0 0.00 0.00 0.00 89 1015.2
20260901111648 82 74 0.0 3.0 0.00 0.00 0.00 90 1015.2
20260901111146 82 51 0.0 2.0 0.00 0.00 0.00 90 1015.2
20260901110646 82 108 0.0 3.0 0.00 0.00 0.00 90 1015.2
20260901110146 82 124 1.0 5.0 0.00 0.00 0.00 90 1014.9
20260901105646 82 78 3.0 3.0 0.00 0.00 0.00 90 1014.9
20260901105146 82 72 1.0 3.0 0.00 0.00 0.00 90 1014.9
20260901104646 82 116 2.0 3.0 0.00 0.00 0.00 90 1014.9
20260901104147 82 112 0.0 3.0 0.00 0.00 0.00 90 1014.9
20260901103646 82 104 2.0 4.0 0.00 0.00 0.00 90 1014.9
20260901103147 82 49 1.0 3.0 0.00 0.00 0.00 90 1014.9
20260901102647 82 104 2.0 3.0 0.00 0.00 0.00 91 1014.9
20260901102148 82 176 2.0 3.0 0.00 0.00 0.00 90 1014.9
20260901101646 82 155 0.0 2.0 0.00 0.00 0.00 90 1014.6
20260901101147 82 61 2.0 3.0 0.00 0.00 0.00 90 1014.9
20260901100646 82 64 1.0 3.0 0.00 0.00 0.00 90 1014.6
20260901100146 82 142 0.0 3.0 0.00 0.00 0.00 89 1014.9
20260901095646 82 97 1.0 5.0 0.00 0.00 0.00 89 1014.6
20260901095149 82 77 3.0 4.0 0.00 0.00 0.00 89 1014.9
20260901094646 82 102 2.0 5.0 0.00 0.00 0.00 89 1014.6
20260901094146 82 294 2.0 5.0 0.00 0.00 0.00 89 1014.6
20260901093648 82 147 4.0 4.0 0.00 0.00 0.00 89 1014.6
20260901093147 82 158 2.0 3.0 0.00 0.00 0.00 89 1014.9
20260901092647 82 168 2.0 2.0 0.00 0.00 0.00 89 1014.6
20260901092146 82 60 2.0 3.0 0.00 0.00 0.00 89 1014.9
20260901091646 82 59 1.0 4.0 0.00 0.00 0.00 89 1014.9
20260901091146 82 146 0.0 3.0 0.00 0.00 0.00 89 1014.9
20260901090647 82 210 1.0 4.0 0.00 0.00 0.00 89 1014.9
20260901090147 82 81 1.0 5.0 0.00 0.00 0.00 89 1014.9
20260901085646 82 31 2.0 3.0 0.00 0.00 0.00 89 1014.9
20260901085146 82 144 1.0 5.0 0.00 0.00 0.00 89 1014.9
20260901084646 82 93 1.0 5.0 0.00 0.00 0.00 89 1014.9
20260901084146 82 192 0.0 5.0 0.00 0.00 0.00 89 1014.6
20260901083647 82 170 2.0 5.0 0.00 0.00 0.00 89 1014.6
20260901083146 82 145 7.0 7.0 0.00 0.00 0.00 89 1014.9
20260901082649 82 74 2.0 4.0 0.00 0.00 0.00 89 1014.9
20260901082147 82 97 3.0 6.0 0.00 0.00 0.00 89 1014.6
20260901081647 82 64 1.0 3.0 0.00 0.00 0.00 89 1014.6
20260901081146 82 97 2.0 4.0 0.00 0.00 0.00 89 1014.9
20260901080647 82 125 3.0 4.0 0.00 0.00 0.00 89 1014.9
20260901080147 82 217 0.0 3.0 0.00 0.00 0.00 89 1014.9
20260901075647 82 63 5.0 5.0 0.00 0.00 0.00 89 1014.6
20260901075147 82 6 0.0 4.0 0.00 0.00 0.00 88 1014.9
20260901074646 82 107 1.0 3.0 0.00 0.00 0.00 89 1014.9
20260901074146 82 164 2.0 4.0 0.00 0.00 0.00 89 1014.9
20260901073646 82 144 2.0 5.0 0.00 0.00 0.00 89 1014.9
20260901073147 82 138 3.0 7.0 0.00 0.00 0.00 89 1014.9
20260901072646 82 145 4.0 5.0 0.00 0.00 0.00 90 1015.2
20260901072147 82 150 3.0 5.0 0.00 0.00 0.00 90 1014.9
20260901071647 82 149 1.0 5.0 0.00 0.00 0.00 90 1014.9
20260901071147 82 173 3.0 5.0 0.00 0.00 0.00 90 1015.2
20260901070649 82 119 1.0 4.0 0.00 0.00 0.00 90 1015.2
20260901070146 82 92 2.0 3.0 0.00 0.00 0.00 90 1015.2
20260901065646 82 154 1.0 3.0 0.00 0.00 0.00 90 1015.2
20260901065148 82 160 2.0 4.0 0.00 0.00 0.00 91 1015.2
20260901064646 82 127 4.0 4.0 0.00 0.00 0.00 91 1015.2
20260901064146 82 166 2.0 6.0 0.00 0.00 0.00 91 1015.2
20260901063647 82 160 4.0 5.0 0.00 0.00 0.00 91 1015.6
20260901063146 82 156 3.0 3.0 0.00 0.00 0.00 90 1015.6
20260901062646 82 143 3.0 4.0 0.00 0.00 0.00 90 1015.2
20260901062146 82 94 1.0 4.0 0.00 0.00 0.00 90 1015.2
20260901061647 82 155 2.0 4.0 0.00 0.00 0.00 90 1015.2
20260901061146 82 127 1.0 3.0 0.00 0.00 0.00 90 1015.2
20260901060646 82 122 1.0 2.0 0.00 0.00 0.00 90 1015.2
20260901060147 82 113 0.0 2.0 0.00 0.00 0.00 90 1015.2
20260901055647 82 152 2.0 4.0 0.00 0.00 0.00 90 1015.2
20260901055147 82 167 2.0 4.0 0.00 0.00 0.00 89 1015.6
20260901054646 82 155 1.0 4.0 0.00 0.00 0.00 90 1015.2
20260901054147 82 146 1.0 3.0 0.00 0.00 0.00 89 1015.2
20260901053646 82 208 0.0 2.0 0.00 0.00 0.00 88 1015.2
20260901053147 82 104 2.0 3.0 0.00 0.00 0.00 88 1015.6
20260901052646 82 34 2.0 5.0 0.00 0.00 0.00 88 1015.2
20260901052146 82 60 3.0 5.0 0.00 0.00 0.00 89 1015.2
20260901051648 82 140 2.0 4.0 0.00 0.00 0.00 89 1015.2
20260901051146 82 67 2.0 5.0 0.00 0.00 0.00 89 1015.6
20260901050647 82 57 3.0 4.0 0.00 0.00 0.00 89 1015.6
20260901050146 82 76 4.0 4.0 0.00 0.00 0.00 89 1015.6
20260901045646 82 73 3.0 4.0 0.00 0.00 0.75 88 1015.6
20260901045146 82 20 3.0 4.0 0.00 0.00 0.75 88 1015.9
20260901044646 82 92 2.0 4.0 0.00 0.00 0.75 88 1015.9
20260901044146 82 158 2.0 5.0 0.00 0.00 0.75 88 1015.9
20260901043647 82 69 2.0 5.0 0.00 0.00 0.75 88 1015.6
20260901043146 82 66 1.0 3.0 0.00 0.00 0.75 88 1015.6
20260901042646 82 233 0.0 3.0 0.00 0.00 0.75 88 1015.6
20260901042146 82 92 3.0 5.0 0.00 0.00 0.75 87 1015.9
20260901041646 82 74 3.0 6.0 0.00 0.00 0.75 87 1015.6
20260901041147 82 81 3.0 5.0 0.00 0.00 0.75 87 1015.6
20260901040647 82 98 2.0 4.0 0.00 0.00 0.75 87 1015.6
20260901040147 82 95 2.0 5.0 0.00 0.00 0.75 87 1015.6
20260901035646 83 89 3.0 3.0 0.00 0.00 0.75 87 1015.6
20260901035146 83 77 1.0 5.0 0.00 0.00 0.75 87 1015.6
20260901034646 83 82 3.0 6.0 0.00 0.00 0.75 87 1015.6
20260901034147 83 77 4.0 6.0 0.00 0.00 0.75 87 1015.6
20260901033647 83 100 2.0 6.0 0.00 0.00 0.75 86 1015.6
20260901033146 82 78 4.0 6.0 0.00 0.00 0.75 87 1015.6
20260901032647 82 93 3.0 5.0 0.00 0.00 0.75 87 1015.6
20260901032146 82 63 4.0 5.0 0.00 0.00 0.75 86 1015.2
20260901031647 83 37 3.0 3.0 0.00 0.00 0.75 86 1015.2
20260901031146 83 138 6.0 6.0 0.00 0.00 0.75 86 1015.2
20260901030647 83 72 3.0 3.0 0.00 0.00 0.75 85 1015.2
20260901030146 83 80 1.0 5.0 0.00 0.00 0.75 85 1015.2
20260901025646 83 78 5.0 7.0 0.00 0.00 0.75 85 1015.2
20260901025147 83 83 3.0 7.0 0.00 0.00 0.75 84 1015.2
20260901024647 83 76 4.0 6.0 0.00 0.00 0.75 84 1015.2
20260901024147 83 93 3.0 6.0 0.00 0.00 0.75 84 1015.2
20260901023648 83 30 4.0 5.0 0.00 0.00 0.75 83 1015.2
20260901023147 83 43 3.0 7.0 0.00 0.00 0.75 83 1014.9
20260901022647 83 84 3.0 5.0 0.00 0.00 0.75 83 1014.9
20260901022148 83 68 3.0 7.0 0.00 0.00 0.75 83 1014.9
20260901021647 84 68 5.0 5.0 0.00 0.00 0.75 82 1014.9
20260901021147 84 87 6.0 7.0 0.00 0.00 0.75 81 1015.2
20260901020649 84 99 2.0 10.0 0.00 0.00 0.75 81 1015.2
20260901020146 84 83 7.0 12.0 0.00 0.00 0.75 80 1015.2
20260901015651 84 66 7.0 11.0 0.00 0.00 0.75 80 1014.9
20260901015147 84 77 2.0 6.0 0.00 0.00 0.75 81 1015.2
20260901014647 84 89 3.0 6.0 0.00 0.00 0.75 81 1014.9
20260901014146 84 115 2.0 6.0 0.00 0.00 0.75 81 1014.9
20260901013648 84 62 5.0 11.0 0.00 0.00 0.75 80 1014.6
20260901013146 84 74 6.0 7.0 0.00 0.00 0.75 80 1014.6
20260901012651 84 68 8.0 12.0 0.00 0.00 0.75 79 1014.2
20260901012149 84 75 8.0 8.0 0.00 0.00 0.75 80 1014.2
20260901011647 84 37 5.0 7.0 0.00 0.00 0.75 81 1014.2
20260901011147 84 70 5.0 8.0 0.00 0.00 0.75 81 1014.2
20260901010647 84 81 5.0 11.0 0.00 0.00 0.75 81 1014.6
20260901010146 84 60 4.0 8.0 0.00 0.00 0.75 81 1014.2
20260901005646 84 83 5.0 8.0 0.00 0.00 0.75 80 1014.2
20260901005147 84 64 5.0 8.0 0.00 0.00 0.75 79 1014.2
20260901004651 84 81 2.0 7.0 0.00 0.00 0.75 79 1014.2
20260901004146 84 144 1.0 9.0 0.00 0.00 0.75 78 1014.2
20260901003647 85 78 4.0 9.0 0.00 0.00 0.75 77 1014.2
20260901003146 85 57 3.0 8.0 0.00 0.00 0.75 76 1014.2
20260901002647 85 59 0.0 7.0 0.00 0.00 0.75 75 1014.2
20260901002146 85 72 4.0 8.0 0.00 0.00 0.75 74 1014.2
20260901001648 85 87 4.0 9.0 0.00 0.00 0.75 74 1014.2
20260901001146 85 108 1.0 11.0 0.00 0.00 0.75 74 1014.2
20260901000647 86 63 3.0 7.0 0.00 0.00 0.75 74 1014.2
20260901000146 86 230 1.0 6.0 0.00 0.00 0.75 73 1014.2
20260831235646 86 120 4.0 9.0 0.00 0.00 0.75 73 1014.2
20260831235146 86 111 2.0 6.0 0.00 0.00 0.75 73 1014.6
20260831234648 86 65 3.0 5.0 0.00 0.00 0.75 74 1014.2
20260831234147 87 352 0.0 4.0 0.00 0.00 0.75 74 1014.6
20260831233646 87 135 1.0 6.0 0.00 0.00 0.75 73 1014.6
20260831233146 87 57 0.0 6.0 0.00 0.00 0.75 73 1014.6
20260831232646 87 64 5.0 11.0 0.00 0.00 0.75 72 1014.6
20260831232147 87 92 5.0 7.0 0.00 0.00 0.75 71 1014.9
20260831231646 87 73 5.0 12.0 0.00 0.00 0.75 70 1014.9
20260831231146 87 79 3.0 5.0 0.00 0.00 0.75 69 1014.9
20260831230646 87 100 6.0 9.0 0.00 0.00 0.75 68 1014.9
20260831230146 87 34 2.0 7.0 0.00 0.00 0.75 68 1014.9
20260831225646 88 67 6.0 9.0 0.00 0.00 0.75 67 1014.9
20260831225146 88 74 4.0 7.0 0.00 0.00 0.75 68 1014.6
20260831224646 87 97 3.0 7.0 0.00 0.00 0.75 71 1014.9
20260831224146 87 103 3.0 6.0 0.00 0.00 0.75 72 1014.9
20260831223647 87 69 5.0 12.0 0.00 0.00 0.75 71 1014.9
20260831223146 87 62 5.0 9.0 0.00 0.00 0.75 71 1014.9
20260831222646 88 84 7.0 13.0 0.00 0.00 0.75 69 1015.2
20260831222146 88 84 3.0 7.0 0.00 0.00 0.75 69 1014.9
20260831221646 88 74 5.0 8.0 0.00 0.00 0.75 69 1014.9
20260831221147 88 70 6.0 12.0 0.00 0.00 0.75 69 1014.9
20260831220647 88 59 4.0 8.0 0.00 0.00 0.75 69 1014.9
20260831220147 88 76 3.0 7.0 0.00 0.00 0.75 69 1014.9
20260831215646 89 35 3.0 11.0 0.00 0.00 0.75 67 1014.6
20260831215146 89 186 1.0 11.0 0.00 0.00 0.75 66 1014.9
20260831214646 89 159 5.0 10.0 0.00 0.00 0.75 67 1014.9
20260831214146 89 71 5.0 11.0 0.00 0.00 0.75 66 1014.9
20260831213647 88 130 2.0 8.0 0.00 0.00 0.75 68 1014.6
20260831213147 89 64 4.0 7.0 0.00 0.00 0.75 67 1014.9
20260831212646 88 95 5.0 7.0 0.00 0.00 0.75 66 1014.9
20260831212153 88 43 6.0 9.0 0.00 0.00 0.75 67 1014.9
20260831211649 88 125 3.0 11.0 0.00 0.00 0.75 70 1014.9
20260831211146 88 101 4.0 11.0 0.00 0.00 0.75 71 1014.9
20260831210647 88 111 6.0 7.0 0.00 0.00 0.75 71 1014.9
20260831210149 88 73 6.0 9.0 0.00 0.00 0.75 70 1015.2
20260831205647 88 99 7.0 12.0 0.00 0.00 0.75 70 1015.2
20260831205147 88 57 4.0 10.0 0.00 0.00 0.75 70 1014.9
20260831204646 89 81 6.0 12.0 0.00 0.00 0.75 70 1015.2
20260831204148 88 102 2.0 7.0 0.00 0.00 0.75 71 1014.9
20260831203646 88 38 5.0 12.0 0.00 0.00 0.75 72 1014.9
20260831203147 88 80 5.0 11.0 0.00 0.00 0.75 71 1014.9
20260831202648 87 41 2.0 12.0 0.00 0.00 0.75 73 1015.2
20260831202148 88 79 4.0 13.0 0.00 0.00 0.75 71 1014.9
20260831201647 88 59 6.0 15.0 0.00 0.00 0.75 72 1015.2
20260831201147 89 92 6.0 10.0 0.00 0.00 0.75 69 1015.2
20260831200646 90 85 7.0 12.0 0.00 0.00 0.75 69 1015.2
20260831200147 89 20 2.0 7.0 0.00 0.00 0.75 69 1015.2
20260831195647 89 65 7.0 10.0 0.00 0.00 0.75 69 1015.2
20260831195146 88 75 6.0 8.0 0.00 0.00 0.75 73 1015.6
20260831194646 87 78 6.0 13.0 0.00 0.00 0.75 74 1015.6
20260831194148 86 73 6.0 14.0 0.00 0.00 0.75 74 1015.6
20260831193648 86 74 8.0 11.0 0.00 0.00 0.75 75 1015.9
20260831193147 86 103 3.0 4.0 0.00 0.00 0.75 80 1015.9
20260831192646 85 63 0.0 6.0 0.00 0.00 0.75 81 1015.9
20260831192150 84 155 0.0 7.0 0.00 0.00 0.75 82 1015.6
20260831191649 84 154 5.0 6.0 0.00 0.00 0.75 84 1015.9
20260831191148 83 175 3.0 8.0 0.00 0.00 0.75 86 1015.9
20260831190656 82 150 5.0 7.0 0.00 0.00 0.75 90 1015.6
20260831190147 82 167 5.0 7.0 0.00 0.00 0.75 91 1015.9
20260831185646 81 189 5.0 5.0 0.00 0.00 0.75 93 1015.9
20260831185146 80 179 2.0 6.0 0.00 0.00 0.75 94 1015.9
20260831184648 79 174 3.0 6.0 0.61 0.00 0.75 93 1016.3
20260831184147 79 221 5.0 14.0 1.51 0.00 0.75 91 1016.3
20260831183647 81 95 5.0 9.0 0.69 0.00 0.59 88 1016.3
20260831183147 84 125 2.0 12.0 0.14 0.00 0.50 85 1016.3
20260831182647 85 54 9.0 11.0 0.00 0.00 0.48 79 1016.3
20260831182146 86 62 7.0 9.0 0.00 0.00 0.48 78 1016.3
20260831181646 85 44 6.0 14.0 0.00 0.00 0.48 78 1016.3
20260831181147 85 78 3.0 15.0 0.00 0.00 0.48 78 1016.3
20260831180647 84 55 7.0 15.0 0.00 0.00 0.48 82 1016.3
20260831180149 82 41 4.0 9.0 0.00 0.00 0.48 87 1016.6
20260831175646 82 52 9.0 13.0 0.00 0.00 0.48 84 1016.9
20260831175146 82 58 7.0 14.0 0.00 0.00 0.48 84 1016.6
20260831174646 85 64 11.0 17.0 0.00 0.00 0.48 76 1016.3
20260831174147 85 53 10.0 19.0 0.00 0.00 0.48 76 1016.3
20260831173646 85 74 5.0 16.0 0.00 0.00 0.48 77 1016.6
20260831173147 85 76 10.0 18.0 0.14 0.00 0.48 82 1016.6
20260831172646 82 73 8.0 11.0 0.33 0.00 0.48 87 1016.3
20260831172147 85 55 8.0 15.0 0.19 0.00 0.45 82 1016.6
20260831171647 87 34 5.0 17.0 0.00 0.00 0.42 77 1016.6
20260831171146 87 67 7.0 9.0 0.00 0.00 0.42 75 1016.6
20260831170646 87 53 8.0 11.0 0.00 0.00 0.42 74 1016.6
20260831170147 87 48 9.0 13.0 0.00 0.00 0.42 75 1016.6
20260831165648 87 50 5.0 10.0 0.00 0.00 0.42 76 1016.6
20260831165146 86 10 5.0 5.0 0.00 0.00 0.42 78 1016.6
20260831164650 86 24 8.0 10.0 0.00 0.00 0.42 78 1016.6
20260831164146 87 26 3.0 8.0 0.00 0.00 0.42 77 1016.6
20260831163648 87 54 4.0 6.0 0.00 0.00 0.42 77 1016.6
20260831163146 87 35 6.0 11.0 0.00 0.00 0.42 78 1016.6
20260831162647 87 51 8.0 9.0 0.00 0.00 0.42 78 1016.9
20260831162146 87 80 3.0 13.0 0.00 0.00 0.42 76 1016.9
20260831161649 87 35 6.0 12.0 0.00 0.00 0.42 76 1016.9
20260831161148 87 85 5.0 11.0 0.00 0.00 0.42 72 1016.9
20260831160647 87 123 7.0 12.0 0.00 0.00 0.42 72 1016.9
20260831160146 87 51 8.0 11.0 0.00 0.00 0.42 72 1016.9
20260831155647 87 95 3.0 7.0 0.00 0.00 0.42 73 1016.9
20260831155147 86 63 6.0 11.0 0.00 0.00 0.42 73 1016.9
20260831154647 86 123 5.0 12.0 0.00 0.00 0.42 75 1016.9
20260831154146 86 58 11.0 11.0 0.00 0.00 0.42 75 1016.9
20260831153647 85 35 7.0 18.0 0.00 0.00 0.42 81 1016.6
20260831153148 83 58 6.0 6.0 0.00 0.00 0.42 87 1016.3
20260831152651 81 63 3.0 5.0 0.00 0.00 0.42 89 1016.3
20260831152147 81 51 3.0 3.0 0.00 0.00 0.42 90 1016.3
20260831151646 80 325 2.0 4.0 0.00 0.00 0.42 90 1016.6
20260831151148 80 44 0.0 5.0 0.00 0.00 0.42 89 1016.6
20260831150646 80 16 2.0 7.0 0.00 0.00 0.42 89 1016.6
20260831150148 80 19 2.0 5.0 0.00 0.00 0.42 90 1016.6
20260831145648 79 13 1.0 6.0 0.05 0.00 0.42 93 1016.3
20260831145147 79 32 3.0 9.0 1.16 0.00 0.42 93 1016.6
20260831144648 80 45 9.0 11.0 1.18 0.00 0.40 91 1016.6
20260831144147 85 146 7.0 22.0 0.38 0.00 0.27 81 1016.6
20260831143646 86 59 5.0 7.0 0.00 0.00 0.20 76 1015.9
20260831143146 86 174 3.0 10.0 0.00 0.00 0.20 76 1016.3
20260831142647 87 72 8.0 10.0 0.00 0.00 0.20 76 1015.9
20260831142147 87 39 4.0 8.0 0.00 0.00 0.20 76 1015.9
20260831141646 87 66 9.0 11.0 0.00 0.00 0.20 77 1015.9
20260831141147 87 64 8.0 11.0 0.00 0.00 0.20 77 1015.9
20260831140647 86 9 3.0 7.0 0.00 0.00 0.20 79 1015.9
20260831140147 86 113 5.0 13.0 0.00 0.00 0.20 79 1016.3